Tracking 23582 objects as of 1-Aug-2021
HD Live streaming from Space Station
objects crossing your sky now

FENGYUN 1C DEB

Track FENGYUN 1C DEB now!
10-day predictions


NORAD ID: 30816
Int'l Code: 1999-025AVA
Perigee: 835.0 km
Apogee: 922.5 km
Inclination: 99.0 °
Period: 102.4 minutes
Semi major axis: 7249 km
RCS: 0.037 m2 (small)
Launch date: May 10, 1999
Source: People's Republic of China (PRC)
Launch site: Taiyaun Space Center, China (TSC)

Note: This is SATELLITE DEBRIS
aabbcc
Your satellite tracking list
Your tracking list is empty




NASA's NSSDC Master Catalog

Two Line Element Set (TLE):
1 30816U 99025AVA 21212.41367041  .00000444  00000-0  29135-3 0  9992
2 30816  99.0303 264.4136 0060334 224.6812 257.5273 14.06421817738992
Source of the keplerian elements: AFSPC